Location: Mercogliano
(40.9167°N, 14.7333°E)
Time: 14:47:42
(UTC+00:00)

Okean-O - Pass Details

Date: 18 September 2020
Orbit: 639 x 641 km, 98.2° (Epoch: 28 October)

Event Time Altitude Azimuth Distance (km) Brightness Sun altitude
Rises 18:04:08 0° 187° (S) 2,930 6.0 -12.0°
Reaches altitude 10° 18:06:29 10° 196° (SSW) 2,026 5.2 -12.4°
Maximum altitude 18:10:32 35° 262° (W) 1,037 4.4 -13.2°
Drops below altitude 10° 18:14:37 10° 329° (NNW) 2,041 5.9 -13.9°
Sets 18:16:59 0° 338° (NNW) 2,955 6.6 -14.3°
